#timestamp,LO_Frequency,Hit,Temp,Hum 
1477965615.2,286047968.6,N,0.0,0.0
1477965635.9,286047966.2,N,0.0,0.0
1477965655.7,286047967.3,N,0.0,0.0
1477965675.6,286047964.6,N,0.0,0.0
1477965695.4,286047966.9,N,0.0,0.0
1477965715.2,286047966.7,N,0.0,0.0
1477965735.1,286047967.2,N,0.0,0.0
1477965736.0,286047967.2,N,0.0,0.0
1477965755.8,286047964.8,N,0.0,0.0
1477965775.7,286047965.6,N,0.0,0.0
1477965795.5,286047964.5,N,0.0,0.0
1477965815.3,286047967.3,N,0.0,0.0
1477965835.2,286047966.2,N,0.0,0.0
1477965855.9,286047966.7,N,0.0,0.0
1477965875.7,286047966.8,N,0.0,0.0
1477965895.6,286047968.5,N,0.0,0.0
1477965915.4,286047966.1,N,0.0,0.0
1477965935.2,286047966.1,N,0.0,0.0
1477965955.1,286047968.7,N,0.0,0.0
1477965956.0,286047968.7,N,0.0,0.0
1477965975.8,286047968.6,N,0.0,0.0
1477965995.6,286047968.4,N,0.0,0.0
1477966015.5,286047968.3,N,0.0,0.0
1477966035.3,286048060.1,N,0.0,0.0
1477966055.1,286047969.1,N,0.0,0.0
1477966075.9,286047968.6,N,0.0,0.0
1477966095.7,286048058.4,N,0.0,0.0
1477966115.5,286048057.6,N,0.0,0.0
1477966135.4,286048058.4,N,0.0,0.0
1477966155.2,286048057.0,N,0.0,0.0
1477966175.1,286048058.5,N,0.0,0.0
1477966176.0,286048058.5,N,0.0,0.0
1477966195.8,286048056.8,N,0.0,0.0
1477966215.6,286048054.1,N,0.0,0.0
1477966235.5,286048056.5,N,0.0,0.0
1477966255.3,286048057.4,N,0.0,0.0
1477966275.1,286048058.3,N,0.0,0.0
1477966295.9,286047968.3,N,0.0,0.0
1477966315.7,286047968.9,N,0.0,0.0
1477966335.5,286047968.7,N,0.0,0.0
1477966355.4,286047968.9,N,0.0,0.0
1477966375.2,286048055.8,N,0.0,0.0
1477966395.0,286048057.0,N,0.0,0.0
1477966395.9,286048057.0,N,0.0,0.0
1477966415.8,286048056.3,N,0.0,0.0
1477966435.6,286048058.6,N,0.0,0.0
1477966455.4,286048057.4,N,0.0,0.0
1477966475.3,286048056.4,N,0.0,0.0
1477966495.1,286048056.8,N,0.0,0.0
1477966515.9,286048055.0,N,0.0,0.0
1477966535.7,286048054.6,N,0.0,0.0
1477966555.5,286048055.4,N,0.0,0.0
1477966575.4,286048054.5,N,0.0,0.0
1477966595.2,286048057.1,N,0.0,0.0
1477966615.0,286048058.3,N,0.0,0.0
1477966615.9,286048058.3,N,0.0,0.0
1477966635.8,286048058.4,N,0.0,0.0
1477966655.6,286048055.7,N,0.0,0.0
1477966675.4,286048054.4,N,0.0,0.0
1477966695.3,286048054.5,N,0.0,0.0
1477966715.1,286048054.3,N,0.0,0.0
1477966735.8,286047969.6,N,0.0,0.0
1477966755.7,286047964.5,N,0.0,0.0
1477966775.5,286047965.0,N,0.0,0.0
1477966795.3,286047968.9,N,0.0,0.0
1477966815.2,286047965.3,N,0.0,0.0
1477966835.0,286047964.5,N,0.0,0.0
1477966835.9,286047964.5,N,0.0,0.0
1477966855.8,286047968.2,N,0.0,0.0
1477966875.6,286047967.2,N,0.0,0.0
1477966895.4,286047965.9,N,0.0,0.0
1477966915.3,286047967.3,N,0.0,0.0
1477966935.1,286047966.5,N,0.0,0.0
1477966936.0,286047966.5,N,0.0,0.0
1477966955.8,286047966.5,N,0.0,0.0
1477966975.7,286047968.4,N,0.0,0.0
1477966995.5,286047970.6,N,0.0,0.0
1477967015.3,286047970.1,N,0.0,0.0
1477967035.2,286047968.2,N,0.0,0.0
1477967055.0,286047970.8,N,0.0,0.0
1477967055.9,286047970.8,N,0.0,0.0
1477967075.7,286047970.2,N,0.0,0.0
1477967095.6,286047968.3,N,0.0,0.0
1477967115.4,286047967.7,N,0.0,0.0
1477967135.3,286047968.9,N,0.0,0.0
1477967155.1,286047970.7,N,0.0,0.0
1477967156.0,286047970.7,N,0.0,0.0
1477967175.8,286047967.7,N,0.0,0.0
1477967195.7,286047966.5,N,0.0,0.0
1477967215.5,286047968.0,N,0.0,0.0
1477967235.3,286047967.8,N,0.0,0.0
1477967255.2,286047967.7,N,0.0,0.0
1477967275.9,286047968.6,N,0.0,0.0
1477967295.7,286047968.0,N,0.0,0.0
1477967315.6,286047967.8,N,0.0,0.0
1477967335.4,286047968.0,N,0.0,0.0
1477967355.2,286047970.8,N,0.0,0.0
1477967375.1,286047970.8,N,0.0,0.0
1477967376.0,286047970.8,N,0.0,0.0
1477967395.8,286047972.2,N,0.0,0.0
1477967415.7,286047970.0,N,0.0,0.0
1477967435.5,286047970.7,N,0.0,0.0
1477967455.3,286047967.7,N,0.0,0.0
1477967475.2,286047968.2,N,0.0,0.0
1477967495.9,286047967.2,N,0.0,0.0
1477967515.7,286047966.9,N,0.0,0.0
1477967535.6,286047966.6,N,0.0,0.0
1477967555.4,286047968.8,N,0.0,0.0
1477967575.2,286047966.6,N,0.0,0.0
1477967595.1,286047966.1,N,0.0,0.0
1477967596.0,286047966.1,N,0.0,0.0
1477967615.8,286047967.4,N,0.0,0.0
1477967635.6,286047966.9,N,0.0,0.0
1477967655.5,286047968.7,N,0.0,0.0
1477967675.3,286047968.2,N,0.0,0.0
1477967695.1,286047967.7,N,0.0,0.0
1477967715.9,286047970.1,N,0.0,0.0
1477967735.7,286047970.1,N,0.0,0.0
1477967755.6,286047968.1,N,0.0,0.0
1477967775.4,286047968.3,N,0.0,0.0
1477967795.2,286047968.8,N,0.0,0.0
1477967815.1,286047966.7,N,0.0,0.0
1477967816.0,286047966.7,N,0.0,0.0
1477967835.8,286047969.1,N,0.0,0.0
1477967855.6,286047969.1,N,0.0,0.0
1477967875.5,286047968.1,N,0.0,0.0
1477967895.3,286047967.8,N,0.0,0.0
1477967915.1,286047968.8,N,0.0,0.0
1477967935.9,286047970.4,N,0.0,0.0
1477967955.7,286047966.1,N,0.0,0.0
1477967975.5,286047968.5,N,0.0,0.0
1477967995.4,286047967.8,N,0.0,0.0
1477968015.2,286047968.6,N,0.0,0.0
1477968035.0,286047966.7,N,0.0,0.0
1477968035.9,286047966.7,N,0.0,0.0
1477968055.8,286047967.1,N,0.0,0.0
1477968075.6,286047969.0,N,0.0,0.0
1477968095.5,286047966.5,N,0.0,0.0
1477968115.3,286047968.0,N,0.0,0.0
1477968135.1,286047966.1,N,0.0,0.0
1477968155.9,286047968.7,N,0.0,0.0
1477968175.7,286047969.0,N,0.0,0.0
1477968195.5,286047968.7,N,0.0,0.0
1477968215.4,286047970.7,N,0.0,0.0
1477968235.2,286047971.2,N,0.0,0.0
1477968255.0,286047968.7,N,0.0,0.0
1477968255.9,286047968.7,N,0.0,0.0
1477968275.8,286047966.7,N,0.0,0.0
1477968295.6,286047963.1,N,0.0,0.0
1477968315.4,286047965.9,N,0.0,0.0
1477968335.3,286047964.8,N,0.0,0.0
1477968355.1,286047965.8,N,0.0,0.0
1477968375.8,286047968.8,N,0.0,0.0
1477968395.7,286047970.7,N,0.0,0.0
1477968415.5,286047968.4,N,0.0,0.0
1477968435.3,286047969.1,N,0.0,0.0
1477968455.2,286047968.6,N,0.0,0.0
1477968475.0,286047969.1,N,0.0,0.0
1477968475.9,286047969.1,N,0.0,0.0
1477968495.8,286047968.4,N,0.0,0.0
1477968515.6,286047969.1,N,0.0,0.0
1477968535.4,286047968.4,N,0.0,0.0
1477968555.3,286047967.0,N,0.0,0.0
1477968575.1,286047964.5,N,0.0,0.0
1477968595.8,286047965.0,N,0.0,0.0
1477968615.7,286047964.5,N,0.0,0.0
1477968635.5,286047969.2,N,0.0,0.0
1477968655.3,286047966.2,N,0.0,0.0
1477968675.2,286047966.2,N,0.0,0.0
1477968695.0,286047968.8,N,0.0,0.0
1477968695.9,286047968.8,N,0.0,0.0
1477968715.7,286047968.3,N,0.0,0.0
1477968735.6,286047970.5,N,0.0,0.0
1477968755.4,286047972.4,N,0.0,0.0
1477968775.3,286047969.4,N,0.0,0.0
1477968795.1,286047970.1,N,0.0,0.0
1477968796.0,286047970.1,N,0.0,0.0
1477968815.8,286047971.5,N,0.0,0.0
1477968835.7,286047969.7,N,0.0,0.0
1477968855.5,286047969.7,N,0.0,0.0
1477968875.3,286047969.7,N,0.0,0.0
1477968895.2,286047967.7,N,0.0,0.0
1477968915.9,286047967.8,N,0.0,0.0
1477968935.7,286047968.6,N,0.0,0.0
1477968955.6,286047966.4,N,0.0,0.0
1477968975.4,286047967.6,N,0.0,0.0
1477968995.2,286047964.6,N,0.0,0.0
1477969015.1,286047967.6,N,0.0,0.0
1477969016.0,286047967.6,N,0.0,0.0
1477969035.8,286047958.2,N,0.0,0.0
1477969055.7,286047962.3,N,0.0,0.0
1477969075.5,286047960.4,N,0.0,0.0
1477969095.3,286047966.9,N,0.0,0.0
1477969115.2,286047969.1,N,0.0,0.0
1477969135.9,286047975.9,N,0.0,0.0
1477969155.7,286047969.6,N,0.0,0.0
1477969175.6,286047968.2,N,0.0,0.0
1477969195.4,286047970.1,N,0.0,0.0
